This is the latest recevied weather packets stored in our database for station/object KFSM. If no packets are shown the sender has not sent any weather packets the latest 1 day(s).
| Time | Temp. | Humidity | Pressure | Rain* | Wind** | Luminosity | Snow |
|---|---|---|---|---|---|---|---|
| 1777994010 | 18.89° C | 93% | 1005.1 hPa | - | 4.02 m/s, 80° | - | - |
| 1777993408 | 18.89° C | 93% | 1005.4 hPa | - | 4.02 m/s, 80° | - | - |
| 1777992809 | 17.78° C | 100% | 1005.4 hPa | - | 4.47 m/s, 70° | - | - |
| 1777992208 | 17.78° C | 100% | 1005.4 hPa | - | 4.47 m/s, 70° | - | - |
| 1777991607 | 17.78° C | 100% | 1005.4 hPa | - | 4.47 m/s, 70° | - | - |
| 1777991009 | 17.78° C | 100% | 1005.4 hPa | - | 4.47 m/s, 70° | - | - |
| 1777990408 | 17.78° C | 93% | 1005.4 hPa | - | 4.02 m/s, 80° | - | - |
| 1777989808 | 17.78° C | 93% | 1005.4 hPa | - | 4.02 m/s, 80° | - | - |
| 1777989207 | 17.78° C | 93% | 1005.8 hPa | - | 3.58 m/s, 90° | - | - |
| 1777988610 | 18.89° C | 82% | 1005.1 hPa | - | 5.81 m/s, 70° | - | - |
| 1777988008 | 18.89° C | 82% | 1005.1 hPa | - | 5.81 m/s, 70° | - | - |
| 1777987409 | 18.89° C | 82% | 1005.1 hPa | - | 5.81 m/s, 70° | - | - |
| 1777986807 | 18.89° C | 82% | 1005.1 hPa | - | 5.81 m/s, 70° | - | - |
| 1777986208 | 18.89° C | 82% | 1005.1 hPa | - | 5.81 m/s, 70° | - | - |
| 1777985610 | 18.89° C | 82% | 1004.7 hPa | - | 2.68 m/s, 70° | - | - |
| 1777985011 | 18.89° C | 82% | 1004.7 hPa | - | 2.68 m/s, 70° | - | - |
| 1777984407 | 18.89° C | 82% | 1004.7 hPa | - | 2.68 m/s, 70° | - | - |
| 1777983805 | 18.89° C | 82% | 1004.7 hPa | - | 2.68 m/s, 70° | - | - |
| 1777983205 | 18.89° C | 82% | 1004.7 hPa | - | 2.68 m/s, 70° | - | - |
| 1777982610 | 18.89° C | 82% | 1004.7 hPa | - | 2.68 m/s, 70° | - | - |
| 1777982006 | 18.89° C | 82% | 1004.4 hPa | - | 1.79 m/s, 100° | - | - |
| 1777981412 | 18.89° C | 82% | 1004.4 hPa | - | 1.79 m/s, 100° | - | - |
| 1777980809 | 18.89° C | 82% | 1004.4 hPa | - | 1.79 m/s, 100° | - | - |
| 1777980211 | 18.89° C | 82% | 1004.1 hPa | - | 2.68 m/s, 90° | - | - |
| 1777979612 | 18.89° C | 82% | 1004.1 hPa | - | 2.68 m/s, 90° | - | - |
* Rain since midnight (hover to see other rain measurements)
** Current wind speed in m/s (hover to see current wind gust speed)